Time,TemperatureF,DewpointF,PressureIn,WindDirection,WindDirectionDegrees,WindSpeedMPH,WindSpeedGustMPH,Humidity,HourlyPrecipIn,Conditions,Clouds,dailyrainin,SoftwareType,DateUTC
2013-07-09 00:01:00,66.0,63.0,30.07,SE,140,0.0,0.0,91,-99.99,,,-99.99,,2013-07-09 04:01:00,
2013-07-09 00:02:00,66.0,64.0,30.07,SE,140,0.0,0.0,92,-99.99,,,-99.99,,2013-07-09 04:02:00,
2013-07-09 00:34:00,65.0,63.0,30.07,SE,140,0.0,0.0,92,-99.99,,,-99.99,,2013-07-09 04:34:00,
2013-07-09 00:43:00,66.0,64.0,30.07,SE,140,0.0,3.0,92,-99.99,,,-99.99,,2013-07-09 04:43:00,
2013-07-09 00:53:00,66.0,64.0,30.07,SE,140,0.0,1.0,92,-99.99,,,-99.99,,2013-07-09 04:53:00,
2013-07-09 01:02:00,66.0,64.0,30.07,SE,141,0.0,1.0,92,-99.99,,,-99.99,,2013-07-09 05:02:00,
2013-07-09 01:22:00,66.0,64.0,30.07,SE,140,0.0,1.0,93,-99.99,,,-99.99,,2013-07-09 05:22:00,
2013-07-09 01:33:00,66.0,64.0,30.06,SE,141,0.0,0.0,93,-99.99,,,-99.99,,2013-07-09 05:33:00,
2013-07-09 01:42:00,66.0,64.0,30.06,SE,141,0.0,2.0,93,-99.99,,,-99.99,,2013-07-09 05:42:00,
2013-07-09 01:52:00,66.0,64.0,30.06,SE,141,1.0,3.0,93,-99.99,,,-99.99,,2013-07-09 05:52:00,
2013-07-09 02:01:00,65.0,63.0,30.06,SE,141,0.0,1.0,93,-99.99,,,-99.99,,2013-07-09 06:01:00,
2013-07-09 02:11:00,65.0,63.0,30.06,SE,141,0.0,0.0,94,-99.99,,,-99.99,,2013-07-09 06:11:00,
2013-07-09 02:22:00,65.0,63.0,30.06,SE,141,0.0,1.0,94,-99.99,,,-99.99,,2013-07-09 06:22:00,
2013-07-09 02:43:00,65.0,63.0,30.06,SE,141,0.0,1.0,94,-99.99,,,-99.99,,2013-07-09 06:43:00,
2013-07-09 02:53:00,65.0,63.0,30.06,WNW,303,0.0,4.0,94,-99.99,,,-99.99,,2013-07-09 06:53:00,
2013-07-09 03:02:00,65.0,63.0,30.06,WNW,303,0.0,0.0,94,-99.99,,,-99.99,,2013-07-09 07:02:00,
2013-07-09 03:12:00,65.0,63.0,30.06,North,351,1.0,4.0,94,-99.99,,,-99.99,,2013-07-09 07:12:00,
2013-07-09 03:22:00,65.0,63.0,30.05,North,350,0.0,2.0,94,-99.99,,,-99.99,,2013-07-09 07:22:00,
2013-07-09 03:34:00,65.0,63.0,30.05,North,351,0.0,0.0,94,-99.99,,,-99.99,,2013-07-09 07:34:00,
2013-07-09 03:43:00,65.0,63.0,30.06,North,351,0.0,3.0,94,-99.99,,,-99.99,,2013-07-09 07:43:00,
2013-07-09 03:53:00,65.0,63.0,30.06,North,351,0.0,1.0,94,-99.99,,,-99.99,,2013-07-09 07:53:00,
2013-07-09 04:11:00,65.0,63.0,30.06,NW,311,0.0,3.0,94,-99.99,,,-99.99,,2013-07-09 08:11:00,
2013-07-09 04:22:00,65.0,63.0,30.05,NW,311,0.0,2.0,94,-99.99,,,-99.99,,2013-07-09 08:22:00,
2013-07-09 04:43:00,65.0,63.0,30.06,NNW,327,0.0,1.0,94,-99.99,,,-99.99,,2013-07-09 08:43:00,
2013-07-09 04:52:00,65.0,63.0,30.06,NNW,327,0.0,2.0,94,-99.99,,,-99.99,,2013-07-09 08:52:00,
2013-07-09 05:02:00,65.0,63.0,30.06,NNW,327,1.0,3.0,94,-99.99,,,-99.99,,2013-07-09 09:02:00,
2013-07-09 05:12:00,65.0,63.0,30.06,NNW,327,0.0,0.0,94,-99.99,,,-99.99,,2013-07-09 09:12:00,
2013-07-09 05:34:00,65.0,63.0,30.07,NW,326,0.0,0.0,94,-99.99,,,-99.99,,2013-07-09 09:34:00,
2013-07-09 05:42:00,65.0,63.0,30.06,NNW,327,0.0,2.0,94,-99.99,,,-99.99,,2013-07-09 09:42:00,
2013-07-09 05:53:00,65.0,63.0,30.07,NNW,327,0.0,2.0,94,-99.99,,,-99.99,,2013-07-09 09:53:00,
2013-07-09 06:01:00,65.0,63.0,30.08,NNW,327,0.0,2.0,94,-99.99,,,-99.99,,2013-07-09 10:01:00,
2013-07-09 06:11:00,65.0,63.0,30.08,NNW,327,0.0,0.0,94,-99.99,,,-99.99,,2013-07-09 10:11:00,
2013-07-09 06:33:00,65.0,63.0,30.08,NNW,327,0.0,0.0,94,-99.99,,,-99.99,,2013-07-09 10:33:00,
2013-07-09 06:42:00,65.0,63.0,30.08,NNW,327,0.0,2.0,94,-99.99,,,-99.99,,2013-07-09 10:42:00,
2013-07-09 06:52:00,65.0,63.0,30.08,NW,326,0.0,0.0,94,-99.99,,,-99.99,,2013-07-09 10:52:00,
2013-07-09 07:02:00,66.0,64.0,30.09,NNW,327,0.0,1.0,94,-99.99,,,-99.99,,2013-07-09 11:02:00,
2013-07-09 07:11:00,66.0,64.0,30.09,NNW,327,0.0,3.0,94,-99.99,,,-99.99,,2013-07-09 11:11:00,
2013-07-09 07:22:00,66.0,64.0,30.09,NW,309,0.0,4.0,93,-99.99,,,-99.99,,2013-07-09 11:22:00,
2013-07-09 07:34:00,66.0,64.0,30.10,NW,315,0.0,4.0,93,-99.99,,,-99.99,,2013-07-09 11:34:00,
2013-07-09 07:42:00,66.0,64.0,30.09,NW,315,0.0,1.0,94,-99.99,,,-99.99,,2013-07-09 11:42:00,
2013-07-09 07:53:00,66.0,64.0,30.09,North,355,0.0,2.0,93,-99.99,,,-99.99,,2013-07-09 11:53:00,
2013-07-09 08:02:00,67.0,65.0,30.09,NNW,347,1.0,3.0,93,-99.99,,,-99.99,,2013-07-09 12:02:00,
2013-07-09 08:12:00,67.0,65.0,30.10,NNW,327,0.0,4.0,92,-99.99,,,-99.99,,2013-07-09 12:12:00,
2013-07-09 08:22:00,67.0,64.0,30.10,NNW,329,0.0,0.0,91,-99.99,,,-99.99,,2013-07-09 12:22:00,
2013-07-09 08:33:00,67.0,64.0,30.10,NNW,328,0.0,1.0,91,-99.99,,,-99.99,,2013-07-09 12:33:00,
2013-07-09 08:43:00,67.0,64.0,30.10,NNW,327,0.0,0.0,91,-99.99,,,-99.99,,2013-07-09 12:43:00,
2013-07-09 08:52:00,67.0,64.0,30.10,NNW,328,0.0,1.0,90,-99.99,,,-99.99,,2013-07-09 12:52:00,
2013-07-09 09:33:00,68.0,65.0,30.11,South,178,0.0,3.0,89,-99.99,,,-99.99,,2013-07-09 13:33:00,
2013-07-09 09:43:00,68.0,65.0,30.11,South,178,0.0,1.0,89,-99.99,,,-99.99,,2013-07-09 13:43:00,
2013-07-09 09:53:00,69.0,66.0,30.10,South,178,0.0,0.0,89,-99.99,,,-99.99,,2013-07-09 13:53:00,
2013-07-09 10:22:00,69.0,66.0,30.10,SSW,207,0.0,1.0,89,-99.99,,,-99.99,,2013-07-09 14:22:00,
2013-07-09 10:34:00,69.0,65.0,30.10,SSW,207,0.0,1.0,88,-99.99,,,-99.99,,2013-07-09 14:34:00,
2013-07-09 10:43:00,69.0,65.0,30.10,SSW,192,2.0,3.0,88,-99.99,,,-99.99,,2013-07-09 14:43:00,
2013-07-09 10:53:00,69.0,65.0,30.11,SSW,192,0.0,3.0,88,-99.99,,,-99.99,,2013-07-09 14:53:00,
2013-07-09 11:22:00,69.0,65.0,30.11,SSW,192,0.0,1.0,88,-99.99,,,-99.99,,2013-07-09 15:22:00,
2013-07-09 11:33:00,69.0,65.0,30.11,SE,138,1.0,5.0,88,-99.99,,,-99.99,,2013-07-09 15:33:00,
2013-07-09 11:52:00,70.0,66.0,30.11,SE,137,0.0,4.0,88,-99.99,,,-99.99,,2013-07-09 15:52:00,
2013-07-09 12:02:00,70.0,66.0,30.10,SSE,163,3.0,5.0,88,-99.99,,,-99.99,,2013-07-09 16:02:00,
2013-07-09 12:11:00,70.0,66.0,30.10,ESE,116,2.0,4.0,87,-99.99,,,-99.99,,2013-07-09 16:11:00,
2013-07-09 12:43:00,70.0,66.0,30.10,SE,134,0.0,3.0,86,-99.99,,,-99.99,,2013-07-09 16:43:00,
2013-07-09 12:52:00,71.0,67.0,30.10,SE,138,5.0,6.0,86,-99.99,,,-99.99,,2013-07-09 16:52:00,
2013-07-09 13:22:00,69.0,65.0,30.10,ESE,116,6.0,9.0,87,-99.99,,,-99.99,,2013-07-09 17:22:00,
2013-07-09 13:35:00,69.0,65.0,30.10,SSE,161,5.0,10.0,86,-99.99,,,-99.99,,2013-07-09 17:35:00,
2013-07-09 13:53:00,70.0,66.0,30.10,SSE,153,4.0,7.0,86,-99.99,,,-99.99,,2013-07-09 17:53:00,
2013-07-09 14:11:00,70.0,66.0,30.09,SSE,148,4.0,6.0,86,-99.99,,,-99.99,,2013-07-09 18:11:00,
2013-07-09 14:22:00,70.0,65.0,30.09,SSE,157,4.0,6.0,85,-99.99,,,-99.99,,2013-07-09 18:22:00,
2013-07-09 14:32:00,70.0,65.0,30.09,SSE,157,3.0,6.0,85,-99.99,,,-99.99,,2013-07-09 18:32:00,
2013-07-09 14:43:00,71.0,66.0,30.09,SE,129,3.0,5.0,85,-99.99,,,-99.99,,2013-07-09 18:43:00,
2013-07-09 14:52:00,71.0,66.0,30.09,SE,133,3.0,5.0,84,-99.99,,,-99.99,,2013-07-09 18:52:00,
2013-07-09 15:01:00,71.0,66.0,30.09,SE,140,3.0,9.0,83,-99.99,,,-99.99,,2013-07-09 19:01:00,
2013-07-09 15:11:00,71.0,66.0,30.09,SSE,147,2.0,9.0,83,-99.99,,,-99.99,,2013-07-09 19:11:00,
2013-07-09 15:42:00,71.0,65.0,30.08,SE,146,4.0,8.0,82,-99.99,,,-99.99,,2013-07-09 19:42:00,
2013-07-09 15:52:00,71.0,65.0,30.08,SSE,150,4.0,10.0,81,-99.99,,,-99.99,,2013-07-09 19:52:00,
2013-07-09 16:11:00,70.0,64.0,30.08,SE,133,3.0,4.0,82,-99.99,,,-99.99,,2013-07-09 20:11:00,
2013-07-09 16:22:00,71.0,65.0,30.08,SE,124,2.0,7.0,82,-99.99,,,-99.99,,2013-07-09 20:22:00,
2013-07-09 16:32:00,71.0,65.0,30.09,South,179,4.0,8.0,82,-99.99,,,-99.99,,2013-07-09 20:32:00,
2013-07-09 16:43:00,70.0,64.0,30.09,SSE,153,6.0,11.0,82,-99.99,,,-99.99,,2013-07-09 20:43:00,
2013-07-09 16:52:00,70.0,65.0,30.09,SSE,155,4.0,9.0,83,-99.99,,,-99.99,,2013-07-09 20:52:00,
2013-07-09 17:01:00,70.0,65.0,30.09,SSE,153,4.0,6.0,83,-99.99,,,-99.99,,2013-07-09 21:01:00,
2013-07-09 17:11:00,70.0,65.0,30.09,SE,142,3.0,7.0,83,-99.99,,,-99.99,,2013-07-09 21:11:00,
2013-07-09 17:22:00,69.0,64.0,30.09,SSE,153,3.0,5.0,84,-99.99,,,-99.99,,2013-07-09 21:22:00,
2013-07-09 17:32:00,69.0,64.0,30.09,SSE,153,3.0,5.0,85,-99.99,,,-99.99,,2013-07-09 21:32:00,
2013-07-09 17:42:00,69.0,64.0,30.08,SSE,152,3.0,4.0,85,-99.99,,,-99.99,,2013-07-09 21:42:00,
2013-07-09 17:52:00,69.0,64.0,30.08,SE,140,2.0,5.0,85,-99.99,,,-99.99,,2013-07-09 21:52:00,
2013-07-09 18:01:00,69.0,64.0,30.08,SSE,153,1.0,4.0,85,-99.99,,,-99.99,,2013-07-09 22:01:00,
2013-07-09 18:11:00,69.0,64.0,30.08,SSE,153,4.0,6.0,85,-99.99,,,-99.99,,2013-07-09 22:11:00,
2013-07-09 18:33:00,69.0,64.0,30.08,SSE,153,4.0,7.0,85,-99.99,,,-99.99,,2013-07-09 22:33:00,
2013-07-09 18:42:00,69.0,64.0,30.08,SSE,152,4.0,5.0,85,-99.99,,,-99.99,,2013-07-09 22:42:00,
2013-07-09 19:02:00,69.0,65.0,30.07,SSE,153,1.0,4.0,86,-99.99,,,-99.99,,2013-07-09 23:02:00,
2013-07-09 19:12:00,69.0,65.0,30.07,SSE,153,3.0,5.0,86,-99.99,,,-99.99,,2013-07-09 23:12:00,
2013-07-09 19:22:00,68.0,64.0,30.07,SSE,153,2.0,4.0,87,-99.99,,,-99.99,,2013-07-09 23:22:00,
2013-07-09 19:33:00,68.0,64.0,30.06,SSE,152,1.0,4.0,87,-99.99,,,-99.99,,2013-07-09 23:33:00,
2013-07-09 19:43:00,68.0,64.0,30.06,SSE,153,0.0,2.0,87,-99.99,,,-99.99,,2013-07-09 23:43:00,
2013-07-09 19:53:00,68.0,64.0,30.06,SSE,152,0.0,1.0,87,-99.99,,,-99.99,,2013-07-09 23:53:00,
2013-07-09 20:01:00,68.0,64.0,30.06,SSE,152,0.0,0.0,87,-99.99,,,-99.99,,2013-07-10 00:01:00,
2013-07-09 20:11:00,68.0,64.0,30.07,SSE,152,0.0,2.0,87,-99.99,,,-99.99,,2013-07-10 00:11:00,
2013-07-09 20:22:00,68.0,64.0,30.07,SSE,153,0.0,0.0,88,-99.99,,,-99.99,,2013-07-10 00:22:00,
2013-07-09 20:42:00,67.0,64.0,30.07,SSE,153,0.0,0.0,89,-99.99,,,-99.99,,2013-07-10 00:42:00,
2013-07-09 20:52:00,67.0,64.0,30.07,SSE,153,0.0,0.0,89,-99.99,,,-99.99,,2013-07-10 00:52:00,
2013-07-09 21:01:00,67.0,64.0,30.07,SSE,153,0.0,0.0,89,-99.99,,,-99.99,,2013-07-10 01:01:00,
2013-07-09 21:11:00,67.0,64.0,30.07,SSE,153,0.0,0.0,89,-99.99,,,-99.99,,2013-07-10 01:11:00,
2013-07-09 21:22:00,66.0,63.0,30.08,SSE,153,0.0,0.0,91,-99.99,,,-99.99,,2013-07-10 01:22:00,
2013-07-09 21:33:00,66.0,63.0,30.08,SSE,153,0.0,0.0,91,-99.99,,,-99.99,,2013-07-10 01:33:00,
2013-07-09 21:43:00,66.0,63.0,30.08,SSE,152,0.0,0.0,91,-99.99,,,-99.99,,2013-07-10 01:43:00,
2013-07-09 21:53:00,65.0,63.0,30.07,SSE,153,1.0,3.0,92,-99.99,,,-99.99,,2013-07-10 01:53:00,
2013-07-09 22:02:00,65.0,63.0,30.07,SSE,153,2.0,6.0,93,-99.99,,,-99.99,,2013-07-10 02:02:00,
2013-07-09 22:22:00,64.0,62.0,30.08,SSE,153,3.0,6.0,94,-99.99,,,-99.99,,2013-07-10 02:22:00,
2013-07-09 22:43:00,64.0,63.0,30.09,South,188,3.0,5.0,95,-99.99,,,-99.99,,2013-07-10 02:43:00,
2013-07-09 22:53:00,64.0,63.0,30.09,South,173,0.0,5.0,95,-99.99,,,-99.99,,2013-07-10 02:53:00,
2013-07-09 23:01:00,64.0,63.0,30.09,South,173,1.0,2.0,96,-99.99,,,-99.99,,2013-07-10 03:01:00,
2013-07-09 23:12:00,64.0,63.0,30.09,South,173,0.0,3.0,96,-99.99,,,-99.99,,2013-07-10 03:12:00,
2013-07-09 23:22:00,64.0,63.0,30.09,South,173,0.0,0.0,96,-99.99,,,-99.99,,2013-07-10 03:22:00,
2013-07-09 23:43:00,64.0,63.0,30.08,South,173,0.0,0.0,96,-99.99,,,-99.99,,2013-07-10 03:43:00,